GW1348 Weather Reports


Display with metric or nautical units.
time (UTC)temp
F
wind
direction
speed
MPH
gust
MPH
rain 1hr
in
rain 24hr
in
rain mn
in
humidity
%
barometer
mb
20260901184557 53 0 0.0 0.0 0.00 0.00 0.00 91 1005.2
20260901184030 53 0 0.0 0.0 0.00 0.00 0.00 91 1005.1
20260901183530 53 0 0.0 0.0 0.00 0.00 0.00 90 1005.1
20260901183052 53 0 0.0 0.0 0.00 0.00 0.00 90 1005.1
20260901182530 53 0 0.0 0.0 0.00 0.00 0.00 90 1005.1
20260901182031 53 0 0.0 0.0 0.00 0.00 0.00 90 1005.2
20260901181555 53 0 0.0 0.0 0.00 0.00 0.00 90 1005.3
20260901181030 54 0 0.0 0.0 0.00 0.00 0.00 90 1005.3
20260901180531 54 0 0.0 0.0 0.00 0.00 0.00 90 1005.4
20260901180047 54 0 0.0 0.0 0.00 0.00 0.00 90 1005.4
20260901175533 54 0 0.0 0.0 0.00 0.00 0.00 90 1005.4
20260901175031 54 0 0.0 0.0 0.00 0.00 0.00 90 1005.5
20260901174554 54 0 0.0 0.0 0.00 0.00 0.00 90 1005.5
20260901174030 54 0 0.0 0.0 0.00 0.00 0.00 91 1005.5
20260901173529 54 0 0.0 0.0 0.00 0.00 0.00 91 1005.6
20260901173106 54 0 0.0 0.0 0.00 0.00 0.00 91 1005.6
20260901172532 54 0 0.0 0.0 0.00 0.00 0.00 90 1005.6
20260901172031 55 0 0.0 0.0 0.00 0.00 0.00 90 1005.5
20260901171601 55 0 0.0 0.0 0.00 0.00 0.00 90 1005.6
20260901171030 55 0 0.0 0.0 0.00 0.00 0.00 90 1005.6
20260901170530 55 0 0.0 0.0 0.00 0.00 0.00 90 1005.7
20260901170055 55 0 0.0 0.0 0.00 0.00 0.00 90 1005.6
20260901165531 55 0 0.0 0.0 0.00 0.00 0.00 89 1005.6
20260901165032 55 0 0.0 0.0 0.00 0.00 0.00 89 1005.6
20260901164604 55 0 0.0 0.0 0.00 0.00 0.00 89 1005.8
20260901164033 55 0 0.0 0.0 0.00 0.00 0.00 89 1005.9
20260901163531 55 0 0.0 0.0 0.00 0.00 0.00 89 1006.0
20260901163047 55 0 0.0 0.0 0.00 0.00 0.00 89 1006.0
20260901162531 55 0 0.0 0.0 0.00 0.00 0.00 89 1006.0
20260901162034 55 0 0.0 0.0 0.00 0.00 0.00 88 1006.1
20260901161555 55 0 0.0 0.0 0.00 0.00 0.00 88 1006.0
20260901161032 55 0 0.0 0.0 0.00 0.00 0.00 88 1006.1
20260901160529 55 0 0.0 0.0 0.00 0.00 0.00 87 1006.1
20260901160055 55 0 0.0 0.0 0.00 0.00 0.00 86 1006.1
20260901155530 55 0 0.0 0.0 0.00 0.00 0.00 86 1006.1
20260901155030 55 0 0.0 0.0 0.00 0.00 0.00 86 1006.2
20260901154550 56 0 0.0 0.0 0.00 0.00 0.00 86 1006.1
20260901154030 56 0 0.0 0.0 0.00 0.00 0.00 85 1006.1
20260901153531 56 0 0.0 1.0 0.00 0.00 0.00 85 1006.2
20260901153049 56 0 0.0 1.0 0.00 0.00 0.00 84 1006.2
20260901152531 56 0 0.0 1.0 0.00 0.00 0.00 84 1006.3
20260901152031 57 0 0.0 0.0 0.00 0.00 0.00 84 1006.5
20260901151557 57 0 0.0 0.0 0.00 0.00 0.00 82 1006.4
20260901151031 57 0 0.0 0.0 0.00 0.00 0.00 81 1006.4
20260901150529 57 0 0.0 0.0 0.00 0.00 0.00 79 1006.4
20260901150049 58 0 0.0 0.0 0.00 0.00 0.00 79 1006.4
20260901145532 58 0 0.0 0.0 0.00 0.00 0.00 81 1006.5
20260901145028 58 0 0.0 0.0 0.00 0.00 0.00 78 1006.7
20260901144550 58 0 0.0 1.0 0.00 0.00 0.00 79 1006.7
20260901144031 58 0 0.0 1.0 0.00 0.00 0.00 79 1006.7
20260901143530 58 332 0.0 1.0 0.00 0.00 0.00 78 1006.7
20260901143048 58 0 0.0 1.0 0.00 0.00 0.00 80 1006.8
20260901142531 58 346 0.0 2.0 0.00 0.00 0.00 81 1006.9
20260901142029 58 0 0.0 2.0 0.00 0.00 0.00 81 1006.9
20260901141558 59 20 0.0 0.0 0.00 0.00 0.00 80 1007.0
20260901141034 59 0 0.0 0.0 0.00 0.00 0.00 79 1006.9
20260901140533 60 0 0.0 0.0 0.00 0.00 0.00 78 1007.1
20260901140052 60 0 0.0 0.0 0.00 0.00 0.00 76 1007.0
20260901135530 61 0 0.0 1.0 0.00 0.00 0.00 74 1006.9
20260901135031 61 0 0.0 1.0 0.00 0.00 0.00 72 1007.0
20260901134550 62 50 0.0 2.0 0.00 0.00 0.00 72 1007.0
20260901134029 61 0 0.0 2.0 0.00 0.00 0.00 74 1007.0
20260901133530 61 0 0.0 1.0 0.00 0.00 0.00 76 1007.0
20260901133048 61 30 0.0 1.0 0.00 0.00 0.00 76 1007.1
20260901132537 61 0 0.0 1.0 0.00 0.00 0.00 75 1007.1
20260901132031 61 0 0.0 1.0 0.00 0.00 0.00 76 1007.1
20260901131553 60 0 0.0 1.0 0.00 0.00 0.00 76 1007.2
20260901131034 60 0 0.0 0.0 0.00 0.00 0.00 77 1007.2
20260901130531 59 0 0.0 1.0 0.00 0.00 0.00 77 1007.3
20260901130052 58 0 0.0 1.0 0.00 0.00 0.00 80 1007.3
20260901125530 58 0 0.0 1.0 0.00 0.00 0.00 79 1007.3
20260901125034 58 0 0.0 1.0 0.00 0.00 0.00 79 1007.3
20260901124554 58 0 0.0 2.0 0.00 0.00 0.00 79 1007.4
20260901124031 59 0 1.0 2.0 0.00 0.00 0.00 78 1007.3
20260901123536 59 0 0.0 2.0 0.00 0.00 0.00 79 1007.3
20260901123047 58 0 0.0 2.0 0.00 0.00 0.00 79 1007.2
20260901122532 58 0 0.0 3.0 0.00 0.00 0.00 78 1007.2
20260901122031 59 15 0.0 3.0 0.00 0.00 0.00 78 1007.2
20260901121603 59 37 0.0 3.0 0.00 0.00 0.00 78 1007.2
20260901121030 59 56 0.0 3.0 0.00 0.00 0.00 77 1007.2
20260901120533 59 46 1.0 3.0 0.00 0.00 0.00 76 1007.2
20260901120048 59 39 0.0 2.0 0.00 0.00 0.00 77 1007.2
20260901115530 59 42 0.0 3.0 0.00 0.00 0.00 77 1007.2
20260901115030 58 0 0.0 4.0 0.00 0.00 0.00 78 1007.2
20260901114558 57 32 0.0 4.0 0.00 0.00 0.00 79 1007.2
20260901114031 57 39 1.0 2.0 0.00 0.00 0.00 79 1007.2
20260901113533 57 0 0.0 2.0 0.00 0.00 0.00 81 1007.3
20260901113055 56 0 0.0 2.0 0.00 0.00 0.00 80 1007.2
20260901112529 57 0 0.0 2.0 0.00 0.00 0.00 79 1007.4
20260901112030 58 42 0.0 3.0 0.00 0.00 0.00 78 1007.2
20260901111553 58 349 0.0 3.0 0.00 0.00 0.00 78 1007.2
20260901111030 58 27 1.0 3.0 0.00 0.00 0.00 78 1007.2
20260901110532 57 87 1.0 4.0 0.00 0.00 0.00 79 1007.2
20260901110050 57 23 1.0 4.0 0.00 0.00 0.00 78 1007.3
20260901105533 57 75 1.0 4.0 0.00 0.00 0.00 79 1007.3
20260901105031 57 44 0.0 3.0 0.00 0.00 0.00 80 1007.4
20260901104556 56 32 0.0 2.0 0.00 0.00 0.00 80 1007.3
20260901104030 56 40 0.0 4.0 0.00 0.00 0.00 80 1007.4
20260901103532 56 48 1.0 4.0 0.00 0.00 0.00 79 1007.4
20260901103105 56 44 1.0 6.0 0.00 0.00 0.00 81 1007.4
20260901102533 56 0 0.0 6.0 0.00 0.00 0.00 81 1007.4
20260901102030 56 55 1.0 6.0 0.00 0.00 0.00 79 1007.5
20260901101554 56 47 0.0 3.0 0.00 0.00 0.00 81 1007.5
20260901101031 55 43 1.0 3.0 0.00 0.00 0.00 81 1007.6
20260901100531 55 0 0.0 3.0 0.00 0.00 0.00 80 1007.5
20260901100054 56 72 0.0 3.0 0.00 0.00 0.00 81 1007.5
20260901095531 55 0 1.0 3.0 0.00 0.02 0.00 81 1007.6
20260901095031 55 44 0.0 4.0 0.00 0.02 0.00 80 1007.6
20260901094550 55 62 1.0 4.0 0.00 0.02 0.00 80 1007.6
20260901094031 56 50 0.0 3.0 0.00 0.02 0.00 81 1007.6
20260901093530 55 82 0.0 3.0 0.00 0.02 0.00 81 1007.5
20260901093125 55 0 1.0 4.0 0.00 0.02 0.00 81 1007.6
20260901092530 55 0 0.0 4.0 0.00 0.02 0.00 81 1007.5
20260901092031 55 58 2.0 4.0 0.00 0.02 0.00 81 1007.5
20260901091601 55 335 1.0 4.0 0.00 0.02 0.00 82 1007.5
20260901091029 55 49 1.0 4.0 0.00 0.02 0.00 81 1007.5
20260901090528 55 35 1.0 3.0 0.00 0.02 0.00 81 1007.4
20260901090047 55 18 0.0 3.0 0.00 0.02 0.00 81 1007.5
20260901085529 55 0 0.0 4.0 0.00 0.06 0.00 83 1007.6
20260901085029 54 0 1.0 4.0 0.00 0.06 0.00 82 1007.6
20260901084550 54 0 1.0 3.0 0.00 0.06 0.00 82 1007.6
20260901084031 55 0 1.0 3.0 0.00 0.06 0.00 82 1007.6
20260901083531 54 0 1.0 3.0 0.00 0.06 0.00 84 1007.5
20260901083052 53 0 1.0 4.0 0.00 0.06 0.00 84 1007.5
20260901082530 54 32 1.0 4.0 0.00 0.06 0.00 83 1007.5
20260901082032 54 11 1.0 4.0 0.00 0.06 0.00 84 1007.5
20260901081550 53 46 1.0 3.0 0.00 0.06 0.00 84 1007.5
20260901081034 53 52 1.0 3.0 0.00 0.06 0.00 84 1007.6
20260901080528 53 0 0.0 3.0 0.00 0.06 0.00 84 1007.5
20260901080104 53 103 0.0 3.0 0.00 0.06 0.00 84 1007.5
20260901075531 53 0 1.0 3.0 0.00 0.11 0.00 83 1007.6
20260901075031 54 48 0.0 3.0 0.00 0.11 0.00 82 1007.6
20260901074549 54 120 0.0 3.0 0.00 0.11 0.00 82 1007.5
20260901074030 54 34 0.0 3.0 0.00 0.11 0.00 81 1007.6
20260901073531 54 70 0.0 3.0 0.00 0.11 0.00 82 1007.5
20260901073053 54 0 0.0 4.0 0.00 0.11 0.00 82 1007.5
20260901072530 54 0 0.0 4.0 0.00 0.11 0.00 83 1007.6
20260901072030 53 0 0.0 4.0 0.00 0.11 0.00 83 1007.4
20260901071553 53 141 1.0 4.0 0.00 0.11 0.00 83 1007.4
20260901071035 53 178 1.0 4.0 0.00 0.11 0.00 84 1007.4
20260901070528 52 143 2.0 4.0 0.00 0.11 0.00 85 1007.4
20260901070057 51 0 1.0 4.0 0.00 0.11 0.00 86 1007.3
20260901065528 51 141 1.0 4.0 0.00 0.20 0.00 86 1007.4
20260901065030 51 144 1.0 4.0 0.00 0.20 0.00 86 1007.4
20260901064548 51 148 1.0 4.0 0.00 0.20 0.00 85 1007.4
20260901064030 51 0 1.0 4.0 0.00 0.20 0.00 85 1007.4
20260901063530 52 160 1.0 3.0 0.00 0.20 0.00 84 1007.3
20260901063054 52 0 1.0 5.0 0.00 0.20 0.00 84 1007.3
20260901062530 51 152 1.0 5.0 0.00 0.20 0.00 85 1007.3
20260901062030 51 143 2.0 5.0 0.00 0.20 0.00 84 1007.3
20260901061554 51 152 1.0 5.0 0.00 0.20 0.00 84 1007.3
20260901061031 51 127 2.0 5.0 0.00 0.20 0.00 85 1007.2
20260901060531 51 154 2.0 5.0 0.00 0.20 0.00 85 1007.2
20260901060051 50 162 3.0 5.0 0.00 0.20 0.00 86 1007.2
20260901055533 50 153 2.0 4.0 0.00 0.33 0.00 87 1007.3
20260901055030 50 141 2.0 4.0 0.00 0.33 0.00 88 1007.1
20260901054557 50 149 1.0 3.0 0.00 0.33 0.00 89 1007.1
20260901054030 49 0 1.0 3.0 0.00 0.33 0.00 90 1007.2
20260901053530 49 135 0.0 3.0 0.00 0.33 0.00 89 1007.1
20260901053114 50 148 0.0 3.0 0.00 0.33 0.00 91 1007.1
20260901052531 49 0 0.0 2.0 0.00 0.33 0.00 93 1007.1
20260901052030 48 139 1.0 2.0 0.00 0.33 0.00 93 1007.0
20260901051547 47 0 0.0 2.0 0.00 0.33 0.00 93 1007.1
20260901051030 47 148 0.0 1.0 0.00 0.33 0.00 94 1007.1
20260901050530 46 0 0.0 0.0 0.00 0.33 0.00 94 1007.0
20260901050056 46 0 0.0 1.0 0.00 0.33 0.00 94 1007.1
20260901045529 46 0 0.0 1.0 0.00 0.41 0.00 93 1007.0
20260901045029 46 143 0.0 0.0 0.00 0.41 0.00 93 1007.0
20260901044553 46 0 0.0 2.0 0.00 0.41 0.00 93 1007.0
20260901044036 46 0 0.0 2.0 0.00 0.41 0.00 93 1007.0
20260901043533 46 0 0.0 2.0 0.00 0.41 0.00 93 1007.0
20260901043117 46 0 0.0 2.0 0.00 0.41 0.00 93 1007.1
20260901042530 46 248 0.0 0.0 0.00 0.41 0.00 94 1007.1
20260901042031 46 0 0.0 0.0 0.00 0.41 0.00 93 1007.0
20260901041604 46 0 0.0 0.0 0.00 0.41 0.00 93 1007.1
20260901041029 47 0 0.0 0.0 0.00 0.41 0.00 93 1007.0
20260901040531 47 0 0.0 0.0 0.00 0.41 0.00 93 1007.1
20260901040054 46 0 0.0 0.0 0.00 0.41 0.00 93 1007.0
20260901035529 46 0 0.0 0.0 0.00 0.46 0.00 93 1007.0
20260901035033 46 0 0.0 0.0 0.00 0.46 0.00 93 1007.0
20260901034604 46 0 0.0 0.0 0.00 0.46 0.00 93 1007.0
20260901034033 46 0 0.0 0.0 0.00 0.46 0.00 94 1007.0
20260901033530 46 0 0.0 0.0 0.00 0.46 0.00 94 1006.9
20260901033102 46 0 0.0 0.0 0.00 0.46 0.00 94 1007.0
20260901032531 46 0 0.0 0.0 0.00 0.46 0.00 94 1007.0
20260901032031 46 0 0.0 0.0 0.00 0.46 0.00 94 1007.0
20260901031548 46 0 0.0 0.0 0.00 0.46 0.00 94 1007.0
20260901031031 45 0 0.0 0.0 0.00 0.46 0.00 93 1007.0
20260901030534 45 0 0.0 0.0 0.00 0.46 0.00 93 1006.9
20260901030053 45 0 0.0 0.0 0.00 0.46 0.00 94 1007.0
20260901025534 45 0 0.0 0.0 0.00 0.49 0.00 94 1007.0
20260901025030 45 0 0.0 0.0 0.00 0.49 0.00 93 1007.0
20260901024600 45 0 0.0 0.0 0.00 0.49 0.00 94 1006.9
20260901024033 45 0 0.0 0.0 0.00 0.49 0.00 94 1006.9
20260901023531 45 0 0.0 0.0 0.00 0.49 0.00 94 1006.9
20260901023052 45 0 0.0 0.0 0.00 0.49 0.00 93 1007.0
20260901022532 45 0 0.0 0.0 0.00 0.49 0.00 93 1006.9
20260901022033 45 0 0.0 0.0 0.00 0.49 0.00 94 1006.9
20260901021548 45 0 0.0 0.0 0.00 0.49 0.00 93 1007.0
20260901021032 45 0 0.0 0.0 0.00 0.49 0.00 93 1006.9
20260901020531 45 0 0.0 0.0 0.00 0.49 0.00 94 1006.9
20260901020046 45 0 0.0 0.0 0.00 0.49 0.00 94 1006.9
20260901015531 46 0 0.0 0.0 0.00 0.51 0.00 94 1006.8
20260901015035 46 0 0.0 0.0 0.00 0.51 0.00 93 1006.8
20260901014553 46 0 0.0 0.0 0.00 0.51 0.00 93 1006.8
20260901014031 46 0 0.0 0.0 0.00 0.51 0.00 92 1006.7
20260901013532 46 0 0.0 0.0 0.00 0.51 0.00 93 1006.7
20260901013051 46 0 0.0 0.0 0.00 0.51 0.00 92 1006.7
20260901012530 46 0 0.0 0.0 0.00 0.51 0.00 92 1006.7
20260901012034 46 0 0.0 0.0 0.00 0.51 0.00 92 1006.6
20260901011556 47 0 0.0 0.0 0.00 0.51 0.00 92 1006.7
20260901011030 47 0 0.0 0.0 0.00 0.51 0.00 92 1006.7
20260901010530 47 0 0.0 0.0 0.00 0.51 0.00 92 1006.7
20260901010049 47 0 0.0 0.0 0.00 0.51 0.00 92 1006.7
20260901005536 47 0 0.0 0.0 0.00 0.51 0.00 92 1006.7
20260901005033 47 0 0.0 0.0 0.00 0.51 0.00 92 1006.6
20260901004554 47 0 0.0 0.0 0.00 0.51 0.00 91 1006.6
20260901004032 47 0 0.0 0.0 0.00 0.51 0.00 91 1006.6
20260901003535 47 0 0.0 0.0 0.00 0.51 0.00 91 1006.6
20260901003058 48 0 0.0 0.0 0.00 0.51 0.00 90 1006.5
20260901002532 48 0 0.0 0.0 0.00 0.51 0.00 90 1006.6
20260901002031 48 0 0.0 0.0 0.00 0.51 0.00 90 1006.7
20260901001548 48 0 0.0 0.0 0.00 0.51 0.00 89 1006.6
20260901001030 48 0 0.0 0.0 0.00 0.51 0.00 89 1006.6
20260901000531 48 0 0.0 0.0 0.00 0.51 0.00 89 1006.7
20260901000059 49 0 0.0 0.0 0.00 0.51 0.00 89 1006.7
20260831235531 49 0 0.0 0.0 0.00 0.51 0.00 89 1006.7
20260831235030 49 0 0.0 0.0 0.00 0.51 0.00 90 1006.8
20260831234554 49 0 0.0 0.0 0.00 0.51 0.00 90 1006.8
20260831234031 49 0 0.0 0.0 0.00 0.51 0.00 90 1006.8
20260831233532 49 0 0.0 1.0 0.00 0.51 0.00 91 1006.9
20260831233053 49 0 0.0 1.0 0.00 0.51 0.00 91 1006.8
20260831232529 49 0 1.0 4.0 0.00 0.51 0.00 91 1006.8
20260831232030 49 0 0.0 4.0 0.00 0.51 0.00 90 1006.9
20260831231550 49 227 1.0 4.0 0.00 0.51 0.00 89 1006.8
20260831231033 49 152 1.0 2.0 0.00 0.51 0.00 89 1006.9
20260831230530 50 0 0.0 0.0 0.00 0.51 0.00 89 1007.0
20260831230105 50 0 0.0 0.0 0.00 0.51 0.00 89 1006.9
20260831225533 50 0 0.0 0.0 0.00 0.51 0.00 88 1006.9
20260831225030 50 0 0.0 0.0 0.00 0.51 0.00 88 1006.9
20260831224553 50 0 0.0 0.0 0.00 0.51 0.00 88 1007.0
20260831224032 50 0 0.0 0.0 0.00 0.51 0.00 88 1007.0
20260831223531 50 0 0.0 0.0 0.00 0.51 0.00 88 1006.9
20260831223051 50 0 0.0 0.0 0.00 0.51 0.00 88 1007.0
20260831222529 50 0 0.0 0.0 0.00 0.51 0.00 88 1007.0
20260831222032 50 0 0.0 0.0 0.00 0.51 0.00 88 1007.0
20260831221549 50 0 0.0 0.0 0.00 0.51 0.00 88 1007.0
20260831221028 50 0 0.0 0.0 0.00 0.51 0.00 88 1006.9
20260831220527 50 0 0.0 0.0 0.00 0.51 0.00 89 1007.0
20260831220055 49 0 0.0 0.0 0.00 0.51 0.00 89 1007.1
20260831215527 49 0 0.0 0.0 0.00 0.51 0.51 90 1007.1
20260831215033 49 0 0.0 0.0 0.00 0.51 0.51 90 1007.0
20260831214552 49 0 0.0 0.0 0.00 0.51 0.51 91 1007.0
20260831214029 49 0 0.0 1.0 0.00 0.51 0.51 90 1007.1
20260831213530 49 0 0.0 1.0 0.00 0.51 0.51 90 1007.2
20260831213050 49 227 0.0 0.0 0.00 0.51 0.51 88 1007.2
20260831212530 49 0 0.0 0.0 0.00 0.51 0.51 88 1007.2
20260831212029 49 0 0.0 0.0 0.00 0.51 0.51 87 1007.2
20260831211558 49 0 0.0 0.0 0.00 0.51 0.51 87 1007.2
20260831211029 49 0 0.0 0.0 0.00 0.51 0.51 87 1007.1
20260831210533 49 0 0.0 0.0 0.00 0.51 0.51 88 1006.9
20260831210052 49 0 0.0 0.0 0.00 0.51 0.51 88 1007.1
20260831205530 49 0 0.0 0.0 0.00 0.51 0.51 88 1007.1
20260831205030 49 0 0.0 0.0 0.00 0.51 0.51 88 1007.1
20260831204557 49 0 0.0 0.0 0.00 0.51 0.51 88 1007.2
20260831204029 49 0 0.0 0.0 0.00 0.51 0.51 88 1007.2
20260831203531 49 0 0.0 0.0 0.00 0.51 0.51 88 1007.1
20260831203101 49 0 0.0 0.0 0.00 0.51 0.51 88 1007.1
20260831202531 49 0 0.0 0.0 0.00 0.51 0.51 88 1007.0
20260831202033 49 0 0.0 0.0 0.00 0.51 0.51 88 1007.1
20260831201549 49 0 0.0 0.0 0.00 0.51 0.51 89 1007.1
20260831201030 49 0 0.0 0.0 0.00 0.51 0.51 89 1006.9
20260831200528 49 0 0.0 0.0 0.00 0.51 0.51 88 1006.9
20260831200053 49 0 0.0 0.0 0.00 0.51 0.51 88 1006.9
20260831195530 49 0 0.0 0.0 0.00 0.51 0.51 87 1006.9
20260831195030 49 0 0.0 0.0 0.00 0.51 0.51 87 1006.9
20260831194626 49 0 0.0 0.0 0.00 0.51 0.51 88 1006.9
20260831194030 49 0 0.0 0.0 0.00 0.51 0.51 88 1006.9
20260831193529 49 0 0.0 0.0 0.00 0.51 0.51 88 1006.9
20260831193053 49 0 0.0 0.0 0.00 0.51 0.51 88 1006.9
20260831192532 49 0 0.0 0.0 0.00 0.51 0.51 89 1006.9
20260831192030 49 0 0.0 0.0 0.00 0.51 0.51 89 1007.0
20260831191549 49 0 0.0 0.0 0.00 0.51 0.51 88 1006.9
20260831191030 50 0 0.0 0.0 0.00 0.51 0.51 88 1006.9
20260831190534 49 0 0.0 0.0 0.00 0.51 0.51 89 1006.9
20260831190137 49 0 0.0 0.0 0.00 0.51 0.51 89 1007.0
20260831185533 49 0 0.0 0.0 0.00 0.51 0.51 89 1006.9
20260831185033 49 0 0.0 0.0 0.00 0.51 0.51 89 1006.9